Weather History for Morristown, NJ

Change the Weather History Date:

Friday, April 26, 2013

  Actual Average Record
Temperature  
Mean Temperature 50 °F -  
Max Temperature 64 °F 63 °F 88 °F (1960)
Min Temperature 37 °F 40 °F 26 °F (1934)
Degree Days  
Heating Degree Days 14    
Moisture  
Dew Point 31 °F    
Average Humidity 59    
Maximum Humidity 87    
Minimum Humidity 16    
Precipitation  
Precipitation 0.00 in - - ()
Sea Level Pressure  
Sea Level Pressure 30.34 in    
Wind  
Wind Speed 1 mph (North)    
Max Wind Speed 12 mph    
Max Gust Speed 17 mph    
Visibility 10 miles    
Events      
Averages and records for this station are not official NWS values.
T = Trace of Precipitation, MM = Missing Value Source: NWS Daily Summary

Daily Weather History Graph

Daily Weather History Graph

Search for Another Location

Airport:

Trip Planner

Search our weather history database for the weather conditions in past years. The results will help you decide how hot, cold, wet, or windy it might be!

Date:

Astronomy

Apr. 26, 2013 Rise Set
Actual Time 6:02 AM EDT 7:49 PM EDT
Civil Twilight 5:33 AM EDT 8:18 PM EDT
Nautical Twilight 4:57 AM EDT 8:54 PM EDT
Astronomical Twilight 4:19 AM EDT 9:32 PM EDT
Moon 9:09 PM EDT 6:27 AM EDT
Length of Visible Light 14h 45m
Length of Day
13h 46m
Full, 99% of the Moon is Illuminated
Apr 26
Full
May 2
Last Quarter
May 9
New
May 18
First Quarter
May 25
Full

Hourly Weather History & Observations

Time (EDT) Temp. Windchill Dew Point Humidity Pressure Visibility Wind Dir Wind Speed Gust Speed Precip Events Conditions
12:15 AM 44.6 °F - 33.8 °F 66% 30.26 in 10.0 mi Calm Calm - N/A   Clear
12:35 AM 44.6 °F - 32.0 °F 61% 30.26 in 10.0 mi Calm Calm - N/A   Clear
12:55 AM 42.8 °F - 35.6 °F 76% 30.27 in 10.0 mi Calm Calm - N/A   Clear
1:15 AM 42.8 °F - 32.0 °F 66% 30.27 in 10.0 mi Calm Calm - N/A   Clear
1:35 AM 41.0 °F - 35.6 °F 81% 30.27 in 10.0 mi Calm Calm - N/A   Clear
1:55 AM 41.0 °F - 35.6 °F 81% 30.28 in 10.0 mi Calm Calm - N/A   Clear
2:15 AM 41.0 °F - 35.6 °F 81% 30.27 in 10.0 mi Calm Calm - N/A   Clear
2:35 AM 39.2 °F - 35.6 °F 87% 30.28 in 10.0 mi Calm Calm - N/A   Clear
2:55 AM 39.2 °F - 33.8 °F 81% 30.28 in 10.0 mi Calm Calm - N/A   Clear
3:15 AM 39.2 °F - 33.8 °F 81% 30.28 in 10.0 mi Calm Calm - N/A   Clear
3:35 AM 39.2 °F - 33.8 °F 81% 30.28 in 10.0 mi Calm Calm - N/A   Clear
3:55 AM 39.2 °F - 35.6 °F 87% 30.29 in 10.0 mi Calm Calm - N/A   Clear
4:15 AM 39.2 °F - 33.8 °F 81% 30.30 in 10.0 mi Calm Calm - N/A   Clear
4:35 AM 37.4 °F - 33.8 °F 87% 30.31 in 10.0 mi Calm Calm - N/A   Clear
4:55 AM 37.4 °F - 33.8 °F 87% 30.31 in 10.0 mi Calm Calm - N/A   Clear
5:15 AM 37.4 °F - 33.8 °F 87% 30.32 in 10.0 mi Calm Calm - N/A   Clear
5:35 AM 37.4 °F - 33.8 °F 87% 30.33 in 10.0 mi Calm Calm - N/A   Clear
5:55 AM 37.4 °F - 33.8 °F 87% 30.34 in 10.0 mi Calm Calm - N/A   Clear
6:15 AM 37.4 °F - 33.8 °F 87% 30.34 in 10.0 mi Calm Calm - N/A   Clear
6:35 AM 39.2 °F - 35.6 °F 87% 30.35 in 10.0 mi Calm Calm - N/A   Clear
6:45 AM 37.4 °F 34.9 °F 33.8 °F 87% 30.36 in 10.0 mi East 3.5 mph - N/A   Clear
7:45 AM 50.0 °F - 33.8 °F 54% 30.39 in 10.0 mi North 6.9 mph - N/A   Clear
8:45 AM 53.6 °F - 33.8 °F 47% 30.41 in 10.0 mi North 11.5 mph 17.3 mph N/A   Clear
9:45 AM 55.4 °F - 33.8 °F 44% 30.40 in 10.0 mi NW 8.1 mph 17.3 mph N/A   Clear
10:45 AM 57.2 °F - 30.2 °F 36% 30.41 in 10.0 mi North 9.2 mph 15.0 mph N/A   Clear
11:45 AM 59.0 °F - 28.4 °F 31% 30.40 in 10.0 mi West 5.8 mph - N/A   Clear
12:45 PM 59.0 °F - 24.8 °F 27% 30.39 in 10.0 mi WSW 4.6 mph - N/A   Partly Cloudy
1:45 PM 60.8 °F - 23.0 °F 23% 30.37 in 10.0 mi Calm Calm - N/A   Partly Cloudy
2:45 PM 62.6 °F - 21.2 °F 20% 30.37 in 10.0 mi Calm Calm - N/A   Partly Cloudy
3:45 PM 64.4 °F - 19.4 °F 18% 30.34 in 10.0 mi North 5.8 mph 15.0 mph N/A   Partly Cloudy
4:45 PM 64.4 °F - 21.2 °F 19% 30.34 in 10.0 mi NNW 6.9 mph 12.7 mph N/A   Scattered Clouds
5:45 PM 64.4 °F - 19.4 °F 18% 30.34 in 10.0 mi ENE 3.5 mph - N/A   Clear
6:45 PM 64.4 °F - 17.6 °F 16% 30.34 in 10.0 mi West 3.5 mph - N/A   Clear
7:45 PM 59.0 °F - 21.2 °F 23% 30.36 in 10.0 mi North 5.8 mph - N/A   Clear
8:45 PM 53.6 °F - 26.6 °F 35% 30.38 in 10.0 mi North 3.5 mph - N/A   Clear
10:55 PM 53.6 °F - 28.4 °F 38% 30.41 in 10.0 mi NNE 4.6 mph - N/A   Clear
11:15 PM 51.8 °F - 30.2 °F 44% 30.41 in 10.0 mi NNE 4.6 mph - N/A   Clear
11:35 PM 51.8 °F - 30.2 °F 44% 30.41 in 10.0 mi NNE 4.6 mph - N/A   Clear
11:55 PM 53.6 °F - 30.2 °F 41% 30.41 in 10.0 mi North 3.5 mph - N/A   Clear